Location: Villingen
(48.0639°N, 8.4609°E)
Time: 00:59:11
(UTC+01:00)

Tiangong 1 - Visible Passes

Search period start: 23 November 2017 00:00
Search period end: 03 December 2017 00:00
Orbit: 284 x 308 km, 42.8° (Epoch: 22 November)

Date Brightness Start Highest point End Pass type
(mag) Time Alt. Az. Time Alt. Az. Time Alt. Az.
27 Nov 3.1 18:00:03 10° S 18:01:18 13° SSE 18:02:03 12° SE visible
28 Nov 2.7 18:05:14 10° SSW 18:07:05 17° SSE 18:07:45 16° SE visible
29 Nov 2.4 18:10:39 10° SW 18:12:45 22° S 18:13:17 20° SSE visible
30 Nov 2.3 18:16:06 10° SW 18:18:17 24° S 18:18:41 23° SSE visible
01 Dec 2.3 18:21:31 10° WSW 18:23:42 24° S 18:23:58 23° S visible
02 Dec 2.6 18:26:52 10° WSW 18:28:55 21° S 18:29:11 21° S visible
